Location: ??????
(30.5519°N, 47.7720°E)
Time: 07:35:57
(UTC+00:00)

Hubble Space Telescope - Visible Passes

Search period start: 17 April 2021 00:00
Search period end: 27 April 2021 00:00
Orbit: 535 x 539 km, 28.5° (Epoch: 16 April)

Date Brightness Start Highest point End Pass type
(mag) Time Alt. Az. Time Alt. Az. Time Alt. Az.
17 Apr 2.8 16:26:09 10° S 16:27:41 13° SSE 16:27:41 13° SSE visible
18 Apr 2.4 16:14:33 10° SSW 16:17:19 17° SSE 16:18:05 17° SE visible
19 Apr 2.2 16:03:10 10° SSW 16:06:21 21° SSE 16:08:22 15° ESE visible
19 Apr 3.4 17:43:10 10° WSW 17:43:44 13° WSW 17:43:44 13° WSW visible
20 Apr 2.0 15:51:55 10° SW 15:55:22 26° SSE 15:58:32 11° ESE visible
20 Apr 2.7 17:32:13 10° WSW 17:33:53 23° WSW 17:33:53 23° WSW visible
21 Apr 1.7 15:40:44 10° SW 15:44:24 31° SSE 15:48:05 10° E visible
21 Apr 1.9 17:21:16 10° WSW 17:23:55 37° WSW 17:23:55 37° WSW visible
22 Apr 1.1 17:10:21 10° WSW 17:13:51 56° SW 17:13:51 56° SW visible
23 Apr 0.7 16:59:26 10° W 17:03:32 66° S 17:03:42 65° SSE visible
24 Apr 0.7 16:48:31 10° W 16:52:37 66° S 16:53:29 50° SE visible
25 Apr 0.8 16:37:37 10° W 16:41:43 64° S 16:43:13 36° ESE visible
26 Apr 0.9 16:26:43 10° W 16:30:48 60° S 16:32:54 26° ESE visible
26 Apr 3.7 18:08:06 10° W 18:08:13 11° W 18:08:13 11° W visible
